DW7479 Weather Reports


time (UTC)temp
F
wind
direction
speed
knots
gust
knots
rain 1hr
in
rain 24hr
in
rain mn
in
humidity
%
barometer
mb
20260506105524 57 79 0.0 0.9 0.00 0.01 0.00 76
20260506105025 57 80 0.0 1.7 0.00 0.01 0.00 76
20260506104522 57 80 0.0 1.7 0.00 0.01 0.00 76
20260506104022 57 82 0.9 3.5 0.00 0.01 0.00 75
20260506103521 57 83 0.0 3.5 0.00 0.01 0.00 76
20260506103032 58 14 0.9 4.3 0.00 0.01 0.00 76
20260506102522 58 351 0.9 4.3 0.00 0.01 0.00 76
20260506102021 58 355 1.7 4.3 0.00 0.01 0.00 76
20260506101522 57 5 1.7 4.3 0.00 0.01 0.00 76
20260506101019 57 340 1.7 4.3 0.00 0.01 0.00 76
20260506100519 57 342 2.6 4.3 0.00 0.01 0.00 76
20260506100018 57 55 0.0 2.6 0.00 0.01 0.00 75
20260506095518 57 69 0.9 3.5 0.00 0.01 0.00 75
20260506095017 58 349 1.7 3.5 0.00 0.01 0.00 75
20260506094519 58 313 1.7 3.5 0.00 0.01 0.00 75
20260506094021 58 327 1.7 3.5 0.00 0.01 0.00 74
20260506093517 58 334 2.6 3.5 0.00 0.01 0.00 75
20260506093018 58 326 0.0 1.7 0.00 0.01 0.00 74
20260506092519 58 326 0.0 2.6 0.00 0.01 0.00 75
20260506092021 58 326 0.9 2.6 0.00 0.01 0.00 74
20260506091616 58 326 0.9 2.6 0.00 0.01 0.00 75
20260506091016 58 327 0.9 3.5 0.00 0.01 0.00 75
20260506090515 58 329 1.7 3.5 0.00 0.01 0.00 75
20260506090015 57 19 0.0 1.7 0.00 0.02 0.00 74
20260506085518 57 19 0.0 1.7 0.00 0.02 0.00 74
20260506085015 57 19 0.0 1.7 0.00 0.02 0.00 73
20260506084514 57 19 0.0 0.9 0.00 0.02 0.00 73
20260506084013 57 19 0.0 0.9 0.00 0.02 0.00 73
20260506083513 57 19 0.0 0.9 0.00 0.02 0.00 73
20260506083012 58 19 0.0 0.9 0.00 0.02 0.00 73
20260506082516 58 19 0.0 0.9 0.00 0.02 0.00 73
20260506082010 58 19 0.0 1.7 0.00 0.02 0.00 72
20260506081510 58 19 0.9 1.7 0.00 0.02 0.00 72
20260506081009 58 15 0.0 1.7 0.00 0.02 0.00 72
20260506080510 59 338 0.0 1.7 0.00 0.02 0.00 72
20260506073504 60 319 1.7 4.3 0.00 0.04 0.00 72
20260506073007 60 304 2.6 5.2 0.00 0.04 0.00 72
20260506072503 60 321 2.6 5.2 0.00 0.04 0.00 72
20260506072003 60 324 2.6 3.5 0.00 0.04 0.00 72
20260506071502 60 327 1.7 3.5 0.00 0.04 0.00 72
20260506071002 60 319 1.7 3.5 0.00 0.04 0.00 72
20260506070503 60 315 2.6 4.3 0.00 0.04 0.00 72
20260506062102 61 333 4.3 7.8 0.00 0.04 0.04 71
20260506061558 61 304 3.5 5.2 0.00 0.04 0.04 71
20260506061102 61 314 2.6 4.3 0.00 0.04 0.04 71
20260506060558 61 320 2.6 4.3 0.00 0.04 0.04 71
20260506060121 61 319 2.6 3.5 0.00 0.04 0.04 72
20260506051055 62 317 1.7 3.5 0.00 0.04 0.04 71 803.7
20260506050556 62 326 0.0 1.7 0.00 0.04 0.04 70 803.7
20260506045100 62 329 0.9 2.6 0.00 0.04 0.04 70 803.7
20260506044610 62 331 0.9 2.6 0.00 0.04 0.04 71 803.7
20260506044055 62 334 0.9 1.7 0.00 0.04 0.04 71 803.7
20260506043554 62 340 0.0 1.7 0.00 0.04 0.04 70 803.7
20260506043054 62 348 0.0 1.7 0.00 0.04 0.04 70 803.7
20260506042554 62 319 0.0 0.9 0.00 0.04 0.04 69 803.7
20260506042054 62 318 0.0 1.7 0.00 0.04 0.04 69 803.7
20260506041556 62 318 0.0 1.7 0.00 0.04 0.04 69 803.7
20260506041054 63 322 0.0 0.9 0.00 0.04 0.04 68 803.7
20260506040553 63 322 0.0 0.9 0.00 0.04 0.04 68 803.7
20260506040053 63 322 0.0 1.7 0.00 0.04 0.04 67 803.7
20260506035553 63 323 0.0 1.7 0.00 0.04 0.04 67 803.7
20260506035053 64 328 0.0 1.7 0.00 0.04 0.04 67 803.7
20260506034553 64 328 0.0 2.6 0.00 0.04 0.04 67 803.7
20260506034052 65 328 0.9 2.6 0.00 0.04 0.04 67 803.7
20260506033552 65 328 0.9 2.6 0.00 0.04 0.04 67 803.7
20260506033052 65 328 0.9 2.6 0.00 0.04 0.04 67 803.7
20260506032556 65 328 0.9 2.6 0.00 0.04 0.04 66 803.7
20260506032052 65 328 1.7 2.6 0.00 0.04 0.04 65 803.7
20260506031557 65 320 0.0 0.9 0.00 0.04 0.04 64 803.7
20260506031050 65 320 0.0 0.9 0.00 0.04 0.04 63 803.7
20260506030554 66 320 0.0 1.7 0.00 0.04 0.04 63 803.7
20260506030052 66 320 0.0 1.7 0.00 0.04 0.04 63 803.7
20260506025551 66 321 0.9 2.6 0.00 0.04 0.04 63 803.7
20260506025050 66 320 1.7 3.5 0.00 0.04 0.04 62 803.7
20260506024558 66 321 1.7 3.5 0.00 0.04 0.04 62 803.7
20260506024050 66 321 1.7 3.5 0.00 0.04 0.04 62 803.7
20260506023552 67 326 1.7 3.5 0.00 0.04 0.04 62 803.7
20260506023050 67 317 1.7 3.5 0.00 0.04 0.04 61 803.7
20260506022549 67 319 2.6 5.2 0.00 0.04 0.04 62 803.7
20260506022049 67 327 2.6 5.2 0.00 0.04 0.04 62 803.7
20260506021549 67 340 3.5 5.2 0.00 0.04 0.04 62 803.7
20260506021049 67 342 3.5 5.2 0.00 0.04 0.04 62 803.7
20260506020549 67 331 3.5 5.2 0.00 0.04 0.04 62 803.7
20260506020048 67 323 3.5 5.2 0.00 0.04 0.04 61 803.7
20260506015548 67 312 3.5 5.2 0.00 0.04 0.04 61 803.7
20260506015048 67 327 3.5 5.2 0.00 0.04 0.04 61 803.7
20260506014547 67 321 2.6 7.0 0.00 0.04 0.04 62 803.7
20260506014046 67 319 2.6 7.8 0.00 0.04 0.04 62 803.7
20260506013548 67 319 4.3 8.7 0.00 0.04 0.04 62 803.7
20260506013046 67 302 6.1 8.7 0.00 0.04 0.04 62 803.7
20260506012546 67 292 6.1 8.7 0.00 0.04 0.04 61 803.7
20260506012046 67 281 6.1 8.7 0.00 0.04 0.04 61 803.7
20260506011545 67 293 5.2 8.7 0.00 0.04 0.04 61 803.7
20260506011045 67 296 6.1 9.6 0.00 0.04 0.04 61 803.7
20260506010546 67 298 5.2 8.7 0.00 0.04 0.04 61 803.7
20260506010046 67 298 3.5 7.0 0.00 0.04 0.04 62 803.7
20260506005545 66 302 2.6 6.1 0.00 0.04 0.04 61 803.7
20260506005044 67 280 2.6 6.1 0.00 0.04 0.04 61 803.7
20260506004544 66 294 1.7 7.0 0.00 0.04 0.04 62 803.7
20260506004044 66 273 2.6 7.0 0.00 0.04 0.04 62 803.7
20260506003544 66 309 2.6 7.0 0.00 0.04 0.04 62 803.7
20260506003044 66 308 4.3 7.8 0.00 0.04 0.04 62 803.7
20260506002546 66 288 4.3 7.8 0.00 0.04 0.04 62 803.7
20260506002043 66 291 1.7 7.0 0.00 0.04 0.04 62 803.7
20260506001546 66 301 4.3 7.8 0.00 0.04 0.04 62 803.7
20260506001043 66 302 3.5 7.8 0.00 0.04 0.04 62 803.7
20260506000543 66 269 1.7 7.0 0.00 0.04 0.04 62 803.7
20260506000043 66 300 1.7 5.2 0.00 0.04 0.04 62 803.7
20260505235545 66 336 3.5 7.8 0.00 0.04 0.04 62 803.7
20260505235045 66 284 4.3 7.8 0.00 0.04 0.04 62 803.7
20260505234547 66 309 0.0 4.3 0.00 0.04 0.04 62 803.7
20260505234044 66 335 0.9 3.5 0.00 0.04 0.04 62 803.7
20260505233539 66 355 1.7 3.5 0.00 0.04 0.04 62 803.7
20260505233039 66 298 1.7 3.5 0.00 0.04 0.04 63 803.7
20260505232538 66 302 1.7 6.1 0.00 0.04 0.04 63 803.7
20260505232039 66 294 2.6 6.1 0.00 0.04 0.04 63 803.7
20260505231550 65 338 2.6 5.2 0.00 0.04 0.04 63 805.1
20260505231038 65 302 1.7 4.3 0.00 0.04 0.04 64 805.1
20260505230537 65 314 2.6 8.7 0.00 0.04 0.04 63 805.1
20260505230051 65 297 2.6 8.7 0.00 0.04 0.04 63 805.1
20260505225537 65 301 5.2 7.8 0.00 0.04 0.04 64
20260505225041 65 317 3.5 7.0 0.00 0.04 0.04 63
20260505224537 65 277 1.7 7.0 0.00 0.04 0.04 63
20260505224035 65 286 3.5 7.0 0.00 0.04 0.04 65
20260505223536 65 275 4.3 9.6 0.00 0.04 0.04 64
20260505223035 65 296 5.2 9.6 0.00 0.04 0.04 65
20260505222534 65 331 6.1 11.3 0.00 0.04 0.04 65
20260505222034 65 333 7.8 11.3 0.00 0.04 0.04 65
20260505221535 65 336 7.0 9.6 0.00 0.04 0.04 65
20260505221036 65 329 3.5 9.6 0.00 0.04 0.04 65
20260505220533 64 325 6.1 9.6 0.00 0.04 0.04 65
20260505220033 64 315 5.2 9.6 0.00 0.04 0.04 66
20260505215534 64 321 6.1 9.6 0.00 0.04 0.04 65
20260505215033 64 305 7.0 11.3 0.00 0.04 0.04 65
20260505214533 64 309 7.0 11.3 0.00 0.04 0.04 65
20260505214032 64 329 8.7 11.3 0.00 0.04 0.04 65
20260505213533 64 328 7.0 11.3 0.00 0.04 0.04 65
20260505213030 64 289 7.0 9.6 0.00 0.04 0.04 65
20260505212531 64 338 5.2 9.6 0.00 0.04 0.04 66
20260505212031 64 293 6.1 10.4 0.00 0.04 0.04 66
20260505211529 64 336 8.7 10.4 0.00 0.04 0.04 66
20260505211028 64 299 7.8 10.4 0.00 0.04 0.04 67
20260505210529 64 344 5.2 10.4 0.00 0.04 0.04 66
20260505210028 64 306 6.1 11.3 0.00 0.04 0.04 66
20260505205528 64 306 5.2 10.4 0.00 0.04 0.04 67
20260505205028 64 289 7.8 9.6 0.00 0.04 0.04 67
20260505204526 63 302 7.8 9.6 0.00 0.04 0.04 66
20260505204025 63 302 7.0 8.7 0.00 0.04 0.04 67
20260505203526 63 360 1.7 7.0 0.00 0.04 0.04 66
20260505203025 63 323 3.5 7.0 0.00 0.04 0.04 67
20260505202525 63 312 3.5 7.8 0.00 0.04 0.04 67
20260505202024 63 317 4.3 7.8 0.00 0.04 0.04 67
20260505201524 62 342 4.3 7.8 0.00 0.04 0.04 67
20260505201025 62 313 4.3 8.7 0.00 0.04 0.04 67
20260505200527 63 340 5.2 10.4 0.00 0.04 0.04 67
20260505200027 63 329 7.0 11.3 0.00 0.04 0.04 67
20260505195528 63 294 5.2 10.4 0.00 0.04 0.04 67
20260505195023 63 293 4.3 9.6 0.00 0.04 0.04 66
20260505194523 63 290 6.1 10.4 0.00 0.04 0.04 66
20260505194021 63 288 7.8 10.4 0.00 0.04 0.04 67
20260505193524 62 288 7.0 10.4 0.00 0.04 0.04 67
20260505193021 62 306 7.0 11.3 0.00 0.04 0.04 67
20260505192526 62 325 7.0 11.3 0.00 0.04 0.04 67
20260505192020 62 317 7.0 11.3 0.00 0.04 0.04 66
20260505191522 62 287 7.0 11.3 0.00 0.04 0.04 66
20260505191019 62 291 4.3 8.7 0.00 0.04 0.04 66
20260505190519 62 279 4.3 10.4 0.00 0.04 0.04 66
20260505190019 62 286 7.8 10.4 0.00 0.04 0.04 66
20260505185519 62 300 6.1 8.7 0.00 0.04 0.04 66
20260505185019 62 321 4.3 11.3 0.00 0.04 0.04 66
20260505184518 62 319 4.3 11.3 0.00 0.04 0.04 66
20260505184017 62 288 4.3 10.4 0.00 0.04 0.04 67
20260505183515 62 310 6.1 10.4 0.00 0.04 0.04 66
20260505183014 62 317 7.0 9.6 0.00 0.04 0.04 68
20260505182512 62 300 5.2 9.6 0.00 0.04 0.04 68
20260505182016 61 310 7.0 9.6 0.00 0.04 0.04 67
20260505181513 61 304 6.1 9.6 0.00 0.04 0.04 68
20260505181010 61 311 6.1 8.7 0.00 0.04 0.04 68
20260505180509 61 323 4.3 8.7 0.00 0.04 0.04 67
20260505180023 61 291 3.5 8.7 0.00 0.05 0.04 69
20260505175508 61 310 4.3 7.8 0.00 0.05 0.04 69
20260505175006 61 297 3.5 7.0 0.00 0.05 0.04 69
20260505174506 60 310 4.3 7.0 0.00 0.05 0.04 69
20260505174006 60 303 3.5 5.2 0.00 0.05 0.04 69
20260505173506 60 290 3.5 6.1 0.00 0.05 0.04 69
20260505173004 60 302 4.3 7.8 0.00 0.05 0.04 70
20260505172505 60 284 4.3 7.8 0.00 0.05 0.04 71
20260505172007 60 297 3.5 7.0 0.00 0.05 0.04 71
20260505171502 60 302 4.3 8.7 0.00 0.05 0.04 71
20260505171001 60 307 5.2 8.7 0.00 0.05 0.04 72 722.6
20260505170603 60 295 5.2 7.8 0.00 0.05 0.04 72 722.6
20260505170059 60 307 4.3 7.8 0.00 0.05 0.04 73 722.6
20260505165557 59 287 5.2 7.8 0.00 0.05 0.04 73 722.6
20260505165056 59 291 3.5 6.1 0.00 0.05 0.04 73
20260505164555 59 323 3.5 8.7 0.01 0.05 0.04 74
20260505164055 59 324 4.3 8.7 0.01 0.05 0.04 74
20260505163553 59 297 6.1 7.8 0.01 0.05 0.04 74
20260505163053 59 288 3.5 7.0 0.01 0.05 0.04 74
20260505162553 59 313 5.2 7.0 0.01 0.05 0.04 74
20260505162053 59 297 4.3 7.8 0.01 0.05 0.04 75
20260505161555 59 311 5.2 7.8 0.01 0.05 0.04 75
20260505161053 59 306 4.3 7.0 0.01 0.05 0.04 75
20260505160551 59 326 4.3 7.0 0.01 0.05 0.04 75
20260505153049 58 325 4.3 7.0 0.00 0.04 0.03 77
20260505152548 58 320 3.5 7.8 0.00 0.04 0.03 77
20260505152050 58 311 4.3 7.8 0.00 0.04 0.03 77
20260505151548 58 333 4.3 7.0 0.00 0.04 0.03 77
20260505151048 58 333 3.5 7.0 0.00 0.04 0.03 77
20260505150547 58 330 3.5 5.2 0.00 0.04 0.03 78
20260505140539 57 355 1.7 3.5 0.00 0.04 0.03 78 816.6
20260505125025 57 351 1.7 2.6 0.00 0.04 0.03 77
20260505124524 57 355 1.7 3.5 0.00 0.04 0.03 77
20260505124023 57 355 1.7 3.5 0.00 0.04 0.03 77
20260505123524 57 335 1.7 3.5 0.00 0.04 0.03 77
20260505123030 57 327 0.9 3.5 0.00 0.04 0.03 77
20260505122522 57 317 1.7 3.5 0.00 0.04 0.03 77
20260505122023 57 332 0.9 2.6 0.00 0.04 0.03 77
20260505121522 57 336 1.7 2.6 0.00 0.04 0.03 77
20260505121021 57 360 0.9 2.6 0.00 0.04 0.03 77
20260505120520 57 9 0.9 2.6 0.00 0.04 0.03 77
20260505120024 57 337 0.9 2.6 0.00 0.04 0.03 77
20260505115520 57 334 0.9 2.6 0.00 0.04 0.03 77
20260505115019 57 333 1.7 2.6 0.00 0.04 0.03 77
20260505114519 57 336 1.7 3.5 0.00 0.04 0.03 77
20260505114022 57 335 1.7 2.6 0.00 0.04 0.03 77
20260505113520 57 338 1.7 2.6 0.00 0.04 0.03 77
20260505113023 57 360 1.7 3.5 0.00 0.04 0.03 77
20260505112518 57 355 1.7 3.5 0.00 0.04 0.03 77
20260505112018 57 355 1.7 3.5 0.00 0.04 0.03 77
20260505111521 57 348 0.9 3.5 0.00 0.04 0.03 77
20260505111017 57 323 1.7 3.5 0.00 0.04 0.03 76
20260505110521 57 334 1.7 3.5 0.00 0.04 0.03 76